EST,Max TemperatureF,Mean TemperatureF,Min TemperatureF,Max Dew PointF,MeanDew PointF,Min DewpointF,Max Humidity, Mean Humidity, Min Humidity, Max Sea Level PressureIn, Mean Sea Level PressureIn, Min Sea Level PressureIn, Max VisibilityMiles, Mean VisibilityMiles, Min VisibilityMiles, Max Wind SpeedMPH, Mean Wind SpeedMPH, Max Gust SpeedMPH,PrecipitationIn, CloudCover, Events, WindDirDegrees
2013-11-1,69,60,50,58,48,39,84,60,35,29.68,29.44,29.26,10,10,7,35,18,43,0.32,7,Rain,231
2013-11-2,56,47,37,45,42,32,96,78,59,29.94,29.72,29.62,10,10,9,18,9,22,0.05,8,Rain,300
2013-11-3,40,33,26,30,23,17,82,65,48,30.53,30.24,29.95,10,10,10,18,7,24,0.00,6,,329
2013-11-4,43,33,22,23,20,16,88,62,36,30.69,30.61,30.55,10,10,10,12,5,16,0.00,4,,74
2013-11-5,58,46,33,37,28,18,56,48,40,30.55,30.48,30.38,10,10,10,16,9,22,0.00,7,,166
2013-11-6,69,53,36,48,43,37,85,64,42,30.36,30.11,29.83,10,10,10,23,9,30,0.11,7,,172
2013-11-7,63,50,37,54,41,33,100,80,60,29.96,29.90,29.77,10,9,4,26,12,35,0.55,8,Rain,276
2013-11-8,45,39,33,36,31,28,96,80,64,30.20,30.03,29.91,10,7,1,23,12,29,0.27,8,Rain-Snow,259
2013-11-9,49,43,36,35,31,24,92,69,45,30.21,30.07,29.79,10,10,6,16,8,22,0.02,8,Rain-Snow,189
2013-11-10,50,44,38,41,36,31,92,74,56,30.11,29.89,29.76,10,9,3,29,15,38,0.27,8,Rain,257
2013-11-11,46,40,33,37,33,29,92,75,58,30.16,30.05,29.95,10,9,2,18,12,32,0.05,8,Rain-Snow,255
2013-11-12,34,31,27,27,21,15,82,72,61,30.35,30.25,30.08,10,8,1,23,12,31,T,8,Snow,296
2013-11-13,38,30,21,21,18,12,71,61,51,30.42,30.31,30.12,10,10,9,20,10,25,T,4,Snow,252
2013-11-14,51,39,27,22,17,13,58,41,24,30.13,30.08,30.04,10,10,10,16,8,20,0.00,4,,219
2013-11-15,56,47,37,26,20,15,49,37,24,30.14,30.11,30.07,10,10,10,14,5,18,0.00,7,,188
2013-11-16,62,48,34,38,31,22,75,54,32,30.27,30.19,30.12,10,10,10,12,5,14,0.00,5,,142
2013-11-17,62,55,47,54,49,40,86,75,63,30.10,29.86,29.43,10,10,10,31,14,46,0.04,8,Rain,156
2013-11-18,62,50,38,55,37,26,77,59,40,29.83,29.60,29.37,10,10,3,38,21,47,0.13,7,Rain,253
2013-11-19,38,33,27,33,26,18,96,78,59,30.45,30.10,29.83,10,8,1,29,13,37,0.05,8,Rain-Snow,290
2013-11-20,39,30,20,20,17,15,84,62,40,30.62,30.56,30.47,10,10,10,10,4,13,0.00,5,,65
2013-11-21,48,36,23,37,24,14,76,61,45,30.55,30.45,30.29,10,10,10,17,7,24,0.01,6,Rain,142
2013-11-22,48,43,37,46,41,31,100,91,82,30.28,30.07,29.94,10,6,2,26,8,37,0.22,8,Rain,247
2013-11-23,40,30,19,30,22,11,85,61,37,30.12,30.03,29.92,10,5,0,33,17,45,0.16,8,Fog-Snow,275
2013-11-24,25,21,17,18,13,9,91,73,54,30.38,30.25,30.06,10,4,1,23,14,29,0.07,8,Snow,299
2013-11-25,34,26,17,19,16,11,91,65,38,30.40,30.30,30.15,10,7,1,21,9,26,0.03,7,Snow,215
2013-11-26,36,34,31,34,28,15,100,74,47,30.20,30.07,29.82,10,5,1,17,9,23,0.59,8,Rain-Snow,121
2013-11-27,36,31,25,34,31,19,100,86,72,29.80,29.63,29.55,10,6,1,29,13,36,0.92,8,Rain-Snow,292
2013-11-28,28,24,19,21,18,12,92,79,65,30.45,30.18,29.82,10,3,0,25,9,33,0.07,8,Fog-Snow,275
2013-11-29,28,20,12,20,16,9,92,69,46,30.77,30.59,30.45,10,7,2,18,5,23,0.02,5,Snow,57
2013-11-30,33,20,7,21,12,4,92,68,43,30.77,30.54,30.26,10,10,10,17,7,24,0.00,5,,112